Theta_e
305 305 306 306 307 307 308 308 307 306 307 308 313 313 312 312 312 313 314 315 315 315 316 317 317 318 319 314 316 317 312 314 316 317 315 316 313 316 317 317 318 317 318 319 319
305 306 306 306 306 308 309 308 308 306 306 309 313 313 312 311 312 312 313 314 315 314 313 314 315 317 317 317 315 312 310 313 314 314 313 314 315 315 316 316 316 317 318 319 319
305 306 306 306 306 309 309 309 309 309 306 308 313 313 314 316 311 312 312 312 311 311 312 312 312 314 316 316 315 312 311 312 314 316 316 315 315 316 315 316 317 317 317 318 319
304 306 307 308 307 310 310 310 313 317 313 315 317 316 318 312 309 312 312 312 312 311 311 311 311 313 312 313 313 313 314 314 315 314 314 314 315 314 315 315 316 317 317 318 319
304 305 307 310 310 311 310 310 315 317 315 312 311 312 311 311 311 311 312 311 311 311 311 310 311 311 310 312 312 312 312 314 314 314 315 314 313 313 314 315 316 316 317 318 319
304 305 306 310 310 311 311 310 315 314 312 311 311 311 310 309 311 311 311 311 310 310 310 310 310 310 311 311 312 312 312 312 314 314 313 311 311 313 314 314 316 315 315 317 318
304 305 306 310 310 310 311 311 315 314 312 311 311 311 311 311 311 311 311 311 310 309 310 310 310 310 309 309 312 313 312 310 311 312 309 310 310 309 312 313 314 314 312 314 317
304 305 306 309 312 311 310 311 316 316 316 315 311 311 311 311 312 312 311 312 312 310 310 310 310 310 309 310 308 309 307 305 305 308 309 310 308 310 311 313 314 313 311 312 314
306 305 306 306 311 310 309 311 313 314 315 315 314 311 311 311 311 311 311 311 312 312 311 311 310 308 308 304 303 303 305 305 305 308 306 309 307 308 310 311 313 312 310 312 313
309 305 306 308 311 309 310 311 312 313 313 313 314 312 311 312 311 311 311 312 311 312 311 310 309 303 301 303 306 306 305 304 305 306 306 304 306 307 310 310 309 309 309 311 311
312 306 305 309 311 309 311 313 312 312 313 312 312 312 312 312 312 311 311 312 311 310 308 307 305 305 306 305 305 305 305 305 306 306 305 308 307 307 308 308 307 307 309 311 310
315 310 306 308 311 308 310 310 310 311 312 313 313 313 313 312 311 311 313 312 310 308 307 305 306 307 307 306 307 306 306 306 306 307 309 308 309 309 308 307 307 307 310 310 309
315 314 307 307 311 308 309 310 312 314 312 315 314 314 311 311 311 313 313 312 309 308 308 307 308 308 308 308 308 308 308 307 308 309 308 307 308 308 309 307 308 308 308 308 313
314 314 308 307 310 308 308 309 312 313 306 312 314 310 313 312 312 313 312 312 310 309 308 307 307 308 307 309 308 309 308 309 310 309 310 308 311 309 308 309 309 313 317 318 319
312 313 308 308 308 308 308 310 313 317 309 309 309 309 313 313 313 313 311 311 309 309 309 308 308 308 309 309 309 309 308 309 309 308 308 309 306 306 312 316 315 315 316 315 316
311 312 309 310 308 309 311 313 313 308 308 309 308 307 311 312 312 312 311 311 310 308 308 308 308 308 308 309 308 309 308 308 305 305 304 307 310 309 317 316 314 312 312 311 311
310 313 311 312 309 309 311 313 312 307 307 309 307 307 310 310 312 310 309 308 309 310 309 308 309 307 309 310 308 307 307 305 306 307 308 307 311 308 316 315 313 311 310 309 309
311 312 312 312 310 309 312 307 314 309 307 307 307 309 311 310 310 310 309 309 310 309 308 310 312 309 309 310 310 309 310 307 309 309 311 311 313 311 315 312 310 309 308 307 307
311 312 313 312 312 311 312 306 305 307 307 307 307 308 308 310 310 308 309 310 310 310 311 311 313 309 310 310 310 311 314 313 317 314 316 310 310 314 314 310 308 307 306 305 305
311 312 315 312 312 311 307 307 307 307 307 308 307 307 307 307 309 308 309 311 312 310 310 311 314 310 311 310 312 311 312 314 309 315 315 312 312 312 313 309 307 307 305 305 304
311 311 314 313 311 311 307 304 307 308 308 307 306 306 307 309 309 309 310 310 311 311 309 309 312 311 309 310 309 309 312 314 315 313 316 314 313 313 310 308 306 306 305 304 304
311 307 312 310 308 302 304 305 310 309 308 307 306 306 306 308 307 308 310 309 312 311 312 308 309 314 310 309 309 310 311 312 316 313 316 316 315 311 308 307 307 305 304 304 303
313 310 311 310 305 304 305 308 309 309 306 306 306 307 306 306 302 307 309 311 311 311 311 309 307 313 307 307 309 312 312 312 313 313 314 316 316 311 310 307 306 304 304 304 303
310 306 310 308 306 303 305 305 308 310 308 307 306 307 306 305 304 306 309 308 311 310 312 312 310 309 308 311 312 313 312 312 313 313 313 313 312 310 310 307 305 304 304 303 303
308 306 306 304 304 303 304 306 309 310 309 307 305 305 305 303 306 306 305 306 308 311 309 309 309 306 308 310 310 311 311 312 315 314 313 310 311 311 309 307 305 304 304 303 303
313 306 305 305 305 305 305 305 308 309 308 305 304 305 303 303 303 302 304 304 307 310 309 308 312 312 314 313 312 311 311 312 312 310 309 310 310 308 306 305 304 304 304 303 303
311 308 307 305 302 302 302 305 307 306 306 307 304 304 304 304 306 306 306 305 307 307 308 310 313 315 315 311 308 310 313 311 309 308 309 310 309 307 307 305 304 304 304 304 303
Wind_Speed
20 17 14 13 14 13 12 13 12 9 7 12 21 23 25 24 23 23 21 17 18 15 14 13 13 8 9 6 4 4 4 2 3 5 7 15 10 17 22 15 14 22 28 33 31
21 18 16 13 13 13 13 15 14 9 6 10 20 22 22 23 24 25 19 15 14 16 17 18 15 8 5 5 3 5 4 6 3 5 7 12 18 25 17 24 12 29 30 31 30
22 18 17 14 12 11 12 14 14 12 9 10 19 18 11 7 12 17 14 14 18 14 16 15 17 9 6 5 6 2 3 4 6 10 16 15 15 23 18 10 23 27 34 34 32
24 17 16 14 11 10 11 12 10 12 15 14 11 9 0 5 5 10 8 12 13 14 15 16 16 8 4 3 5 2 5 6 6 20 17 15 22 11 20 23 27 24 28 30 29
25 18 16 13 11 10 10 10 8 11 13 14 15 15 15 18 11 10 10 14 12 10 14 15 12 6 2 2 5 4 4 4 18 22 23 20 13 15 20 25 23 22 23 26 28
26 19 14 11 11 9 9 7 8 12 13 14 15 13 10 15 12 8 10 19 16 12 13 10 6 7 1 2 2 5 9 15 11 14 13 9 14 18 19 27 24 22 23 24 26
27 20 13 9 10 9 7 4 8 9 10 14 14 16 17 10 12 7 8 15 17 12 13 12 8 4 4 3 4 5 4 6 5 10 8 10 6 8 24 28 27 26 24 22 26
29 22 13 8 6 8 8 1 8 7 5 4 6 9 7 8 8 6 6 10 15 9 8 10 6 3 3 4 5 4 3 4 5 6 9 4 13 8 29 19 30 29 29 26 24
31 24 14 9 7 8 7 5 8 5 4 3 1 3 4 12 11 10 7 10 11 15 5 9 1 3 3 3 4 6 5 6 7 5 6 4 11 9 30 28 24 30 30 26 25
32 27 16 9 7 11 5 8 7 3 5 3 2 1 1 6 13 9 5 11 8 12 5 5 3 3 4 6 3 8 7 6 7 7 5 8 13 8 23 25 24 29 32 32 28
32 30 17 8 7 11 5 7 3 2 3 1 2 1 4 7 14 8 4 12 7 4 2 4 4 1 5 5 7 6 5 10 13 8 5 14 19 16 23 24 26 25 30 30 33
33 31 17 7 3 8 8 5 5 2 3 3 3 6 8 6 7 8 9 7 4 4 1 5 1 4 6 6 3 4 6 7 9 5 9 12 23 19 18 17 29 28 28 33 33
34 32 18 6 2 4 6 6 3 4 0 2 4 3 4 9 3 9 13 8 4 3 2 4 2 2 2 2 5 3 6 5 9 17 5 6 15 6 17 14 26 29 30 30 19
34 33 16 4 3 2 1 3 1 2 4 3 1 1 6 3 3 14 16 3 3 4 3 3 3 4 5 1 4 4 2 7 15 7 6 6 12 2 9 14 12 22 26 27 23
32 31 12 5 4 1 3 3 1 2 0 2 1 1 4 5 6 10 14 5 1 4 3 5 4 5 3 2 3 8 9 12 13 7 4 1 1 6 7 12 17 17 28 31 31
30 26 7 7 3 2 4 2 2 5 4 2 2 5 4 6 3 8 9 6 3 3 3 5 6 1 2 4 3 10 5 10 2 2 2 4 1 3 4 4 12 21 27 30 35
29 23 4 6 4 4 7 5 4 3 2 0 1 4 1 4 3 6 4 6 3 5 5 7 5 4 2 5 6 10 7 5 6 4 4 3 5 7 3 4 10 15 26 29 32
29 25 5 3 5 6 4 4 2 3 3 1 2 2 2 6 2 6 2 1 4 3 1 3 7 4 4 1 3 3 3 3 4 3 8 10 5 5 5 10 15 17 21 24 30
30 22 5 1 5 5 0 2 5 4 3 0 2 4 2 1 1 5 2 4 3 1 2 2 5 1 7 2 1 2 1 3 5 5 5 4 6 2 6 12 20 20 25 28 29
28 19 5 3 8 5 3 5 4 3 4 3 1 2 1 3 1 2 2 3 3 6 3 3 6 1 3 2 2 0 1 2 2 5 5 5 5 4 10 15 17 22 30 35 36
23 11 3 8 6 3 3 6 5 7 9 5 6 3 5 2 2 2 3 3 5 4 5 5 4 5 4 3 3 2 1 1 3 3 3 4 5 3 5 10 13 18 30 31 35
13 5 5 6 1 1 2 4 2 4 12 5 5 7 7 5 3 3 6 7 8 5 3 6 4 4 9 7 6 5 4 3 3 2 4 4 6 5 5 7 20 25 29 31 29
15 9 4 5 2 2 4 4 4 4 5 7 7 6 4 7 1 6 4 5 11 7 6 5 1 4 8 5 2 0 4 5 5 4 8 5 4 2 10 15 20 24 30 32 30
7 3 3 1 3 5 1 4 4 4 3 6 4 4 4 5 5 4 5 4 2 8 7 10 3 7 6 7 8 10 9 10 7 4 5 9 21 13 14 13 19 25 29 27 29
5 5 3 3 1 2 4 2 3 3 3 10 3 7 7 5 3 6 5 4 6 3 2 7 5 6 10 16 17 17 16 14 11 6 5 9 20 18 9 13 21 26 27 28 30
6 4 3 4 5 3 5 5 6 4 5 5 5 7 7 8 10 9 6 5 7 2 4 2 4 4 7 14 11 14 13 12 7 5 11 15 20 6 18 21 22 26 25 27 30
13 17 6 5 2 4 5 7 5 4 6 13 8 4 6 12 23 27 25 15 8 8 7 6 2 2 6 4 9 5 7 8 4 6 7 10 9 8 11 15 22 27 29 28 32
Wind_Direction
16 19 18 16 19 25 30 24 23 26 47 87 113 104 96 84 75 63 55 54 51 49 48 47 41 54 80 84 90 74 55 15 282 332 295 323 335 332 328 303 317 305 295 304 311
17 16 14 12 15 21 21 19 21 47 83 105 129 115 100 84 72 58 52 51 42 38 43 39 38 40 71 44 72 83 111 219 220 278 286 310 324 318 327 316 313 326 324 325 320
15 14 13 12 12 19 19 18 22 51 103 121 143 131 114 52 54 37 39 44 37 39 36 29 30 32 60 31 23 56 168 223 279 308 312 304 307 315 307 303 311 309 313 318 313
13 13 14 15 18 20 20 23 44 57 96 102 141 168 349 19 68 19 35 27 16 31 32 34 28 54 67 38 350 3 256 274 287 315 320 308 309 296 291 293 304 305 307 308 307
11 11 15 23 34 23 18 28 73 80 101 94 93 107 98 79 58 43 41 19 7 7 18 17 21 40 60 317 319 167 248 255 302 311 310 305 288 291 295 318 298 299 310 297 300
8 10 13 24 29 24 19 42 103 105 101 96 102 87 91 70 42 53 44 19 14 4 7 26 13 356 72 279 133 288 296 300 305 304 293 275 295 310 306 310 306 318 318 309 300
8 5 8 17 33 32 17 41 128 127 115 111 100 84 70 69 43 44 21 10 17 37 33 14 9 22 322 320 311 271 299 327 282 296 294 317 307 292 305 308 310 308 313 311 297
7 3 1 6 17 16 4 149 140 142 140 127 109 91 80 39 26 6 353 6 17 358 29 18 40 76 25 313 329 348 57 353 270 278 281 327 297 273 306 292 305 307 312 312 303
6 4 355 356 11 9 338 162 150 149 157 162 153 82 72 43 9 351 330 356 353 7 319 356 6 53 35 46 7 355 277 268 300 242 278 218 293 282 310 299 289 299 300 305 305
4 1 351 356 11 11 9 151 162 125 145 123 182 143 78 338 347 335 308 350 318 347 331 354 30 64 28 46 310 289 300 271 264 299 299 291 284 284 297 294 287 288 294 295 301
0 1 349 346 13 27 99 134 147 215 211 193 127 15 299 311 328 312 332 339 298 311 349 356 55 90 263 229 231 265 260 258 284 278 320 300 286 286 282 281 286 278 284 287 295
357 356 350 334 2 24 56 96 69 1 289 227 250 283 319 335 317 41 0 344 321 284 93 5 187 194 286 293 293 288 287 279 282 295 302 293 289 283 294 277 274 274 280 282 292
354 353 348 329 253 358 46 71 74 340 342 252 214 293 347 335 74 19 12 334 255 276 331 203 214 279 1 71 25 284 263 293 289 316 231 291 286 342 312 285 288 294 284 288 302
354 351 349 354 243 339 11 13 47 89 71 274 71 38 2 9 143 32 15 329 343 292 319 222 288 0 336 95 39 309 279 306 306 332 302 69 292 357 343 354 354 357 0 351 340
355 352 353 353 297 279 319 327 157 105 332 152 107 131 63 50 348 7 9 9 36 291 22 267 305 342 342 342 338 250 305 274 283 271 335 272 257 275 6 359 347 348 351 350 350
354 353 359 5 37 12 329 283 180 49 241 182 59 7 46 14 42 346 28 32 38 9 338 258 306 220 252 328 289 296 336 320 59 104 19 238 133 273 5 329 344 345 343 345 341
348 350 326 356 346 338 339 157 37 148 9 188 25 9 97 344 19 26 45 15 55 16 344 326 329 327 65 334 343 16 17 342 353 360 234 222 316 247 211 39 29 339 334 338 337
342 341 250 344 350 339 345 57 204 178 227 53 66 351 90 17 29 351 76 19 24 61 1 21 325 5 358 102 282 336 100 145 286 283 292 282 234 263 133 52 7 350 331 336 337
338 345 190 251 346 340 219 85 217 201 171 54 25 81 356 312 338 23 3 201 189 120 78 344 262 239 316 321 187 311 96 147 272 269 272 251 287 287 33 3 359 346 344 344 338
339 337 207 277 313 290 94 224 207 213 140 98 141 137 281 234 309 35 266 208 199 195 159 225 287 252 288 4 50 241 205 15 325 294 283 270 274 249 1 350 345 347 343 340 339
339 326 243 299 307 221 175 222 220 212 173 155 194 196 223 270 216 247 234 271 190 205 185 165 183 286 352 184 188 335 167 229 258 223 284 302 259 91 28 358 342 337 332 336 334
336 330 264 319 293 32 181 205 257 228 202 197 143 180 195 193 239 244 218 211 193 177 206 209 175 270 257 284 236 193 190 170 256 273 254 267 278 109 69 356 353 337 329 330 335
324 288 260 287 213 264 300 292 266 209 190 180 201 183 170 184 8 213 220 249 250 172 185 177 264 299 333 358 19 207 228 248 241 256 252 278 271 125 12 349 347 333 326 325 331
304 323 282 321 117 127 33 259 266 223 196 181 184 144 133 191 224 244 225 271 225 217 244 178 192 201 218 251 283 278 250 265 255 241 294 259 289 317 338 338 334 325 326 324 328
265 251 246 280 281 108 170 261 255 256 215 195 204 197 169 197 217 230 228 265 275 244 125 147 221 202 247 258 271 269 270 258 247 242 255 299 294 308 331 331 316 317 318 320 324
260 266 253 272 266 180 179 237 212 222 192 237 207 214 173 185 190 226 194 193 225 144 147 179 262 218 267 271 272 275 264 262 224 251 269 291 292 357 333 320 319 319 319 318 328
246 252 247 249 214 138 218 213 229 145 260 242 216 161 193 230 244 255 258 251 216 171 184 165 209 275 278 338 312 288 216 170 212 237 283 289 294 332 318 323 319 316 314 311 323